Weather History for KLGA - November, 2014

Change the Weather History Date:

Tuesday, November 4, 2014

  Actual Average Record
Temperature  
Mean Temperature 62 °F 52 °F  
Max Temperature 69 °F 59 °F 76 °F (1987)
Min Temperature 55 °F 45 °F 29 °F (1951)
Degree Days  
Heating Degree Days 3 13  
Month to date heating degree days 55 51  
Since 1 July heating degree days 231 323  
Cooling Degree Days 0 0  
Month to date cooling degree days 0 0  
Year to date cooling degree days 1192 1213  
Growing Degree Days 12 (Base 50)    
Moisture  
Dew Point 26 °F    
Average Humidity 31    
Maximum Humidity 42    
Minimum Humidity 19    
Precipitation  
Precipitation 0.00 in 0.11 in 3.05 in (1950)
Month to date precipitation 0.18 0.46  
Year to date precipitation 40.37 38.22  
Snow  
Snow 0.00 in 0.00 in - ()
Month to date snowfall 0.0 0.0  
Since 1 July snowfall 0.0 0.0  
Snow Depth 0.00 in    
Sea Level Pressure  
Sea Level Pressure 30.11 in    
Wind  
Wind Speed 9 mph (SW)    
Max Wind Speed 17 mph    
Max Gust Speed 23 mph    
Visibility 10 miles    
Events      
T = Trace of Precipitation, MM = Missing Value Source: NWS Daily Summary

Daily Weather History Graph

Daily Weather History Graph

Search for Another Location

Airport or City:

Trip Planner

Search our weather history database for the weather conditions in past years. The results will help you decide how hot, cold, wet, or windy it might be!

Date:

Astronomy

Nov. 04, 2014 Rise Set
Actual Time 6:29 AM EST 4:48 PM EST
Civil Twilight 6:00 AM EST 5:16 PM EST
Nautical Twilight 5:28 AM EST 5:49 PM EST
Astronomical Twilight 4:56 AM EST 6:21 PM EST
Moon 3:34 PM EST (11/4) 3:43 AM EST (11/4)
Length of Visible Light 11h 16m
Length of Day
10h 18m
Waxing Gibbous, 94% of the Moon is Illuminated
Nov 4
Waxing Gibbous
Nov 6
Full
Nov 14
Last Quarter
Nov 22
New
Nov 29
First Quarter

Hourly Weather History & Observations

Time (EST) Temp. Dew Point Humidity Pressure Visibility Wind Dir Wind Speed Gust Speed Precip Events Conditions
12:51 AM 55.4 °F 19.4 °F 25% 30.12 in 10.0 mi West 10.4 mph 19.6 mph N/A   Overcast
1:51 AM 57.0 °F 19.0 °F 23% 30.12 in 10.0 mi West 13.8 mph 23.0 mph N/A   Overcast
2:51 AM 57.0 °F 19.0 °F 23% 30.12 in 10.0 mi West 13.8 mph - N/A   Overcast
3:51 AM 55.9 °F 19.9 °F 25% 30.13 in 10.0 mi West 15.0 mph - N/A   Overcast
4:51 AM 57.0 °F 21.0 °F 25% 30.14 in 10.0 mi West 9.2 mph - N/A   Overcast
5:51 AM 57.0 °F 21.0 °F 25% 30.14 in 10.0 mi West 9.2 mph - N/A   Mostly Cloudy
6:51 AM 57.0 °F 21.9 °F 26% 30.15 in 10.0 mi West 8.1 mph - N/A   Mostly Cloudy
7:51 AM 57.9 °F 23.0 °F 26% 30.16 in 10.0 mi Calm Calm - N/A   Mostly Cloudy
8:51 AM 60.1 °F 25.0 °F 26% 30.16 in 10.0 mi Calm Calm - N/A   Mostly Cloudy
9:51 AM 62.1 °F 25.0 °F 24% 30.17 in 10.0 mi WSW 5.8 mph - N/A   Scattered Clouds
10:51 AM 64.0 °F 27.0 °F 25% 30.16 in 10.0 mi SW 6.9 mph - N/A   Mostly Cloudy
11:51 AM 64.9 °F 26.1 °F 23% 30.13 in 10.0 mi SW 10.4 mph - N/A   Mostly Cloudy
12:51 PM 68.0 °F 25.0 °F 20% 30.09 in 10.0 mi SSW 10.4 mph - N/A   Mostly Cloudy
1:51 PM 68.0 °F 26.1 °F 21% 30.08 in 10.0 mi SW 10.4 mph - N/A   Mostly Cloudy
2:51 PM 68.0 °F 24.1 °F 19% 30.07 in 10.0 mi SSW 12.7 mph 20.7 mph N/A   Mostly Cloudy
3:51 PM 68.0 °F 27.0 °F 21% 30.07 in 10.0 mi SSW 10.4 mph - N/A   Mostly Cloudy
4:51 PM 64.9 °F 34.0 °F 32% 30.07 in 10.0 mi South 9.2 mph - N/A   Mostly Cloudy
5:51 PM 64.9 °F 28.9 °F 26% 30.08 in 10.0 mi SSW 9.2 mph - N/A   Mostly Cloudy
6:51 PM 64.9 °F 28.9 °F 26% 30.08 in 10.0 mi SSW 8.1 mph - N/A   Mostly Cloudy
7:51 PM 64.0 °F 28.9 °F 27% 30.08 in 10.0 mi SSW 8.1 mph - N/A   Mostly Cloudy
8:51 PM 63.0 °F 33.1 °F 33% 30.07 in 10.0 mi SSW 9.2 mph - N/A   Mostly Cloudy
9:51 PM 62.1 °F 35.1 °F 37% 30.06 in 10.0 mi SSW 10.4 mph - N/A   Mostly Cloudy
10:51 PM 61.0 °F 37.0 °F 41% 30.04 in 10.0 mi SSW 8.1 mph - N/A   Mostly Cloudy
11:51 PM 60.1 °F 39.0 °F 46% 30.02 in 10.0 mi South 6.9 mph - N/A   Mostly Cloudy